GPS BIIR-07

Last updated on June 14, 2018, 12:19 a.m. UTC

1 26690U 01004A   18164.60657028  .00000046  00000-0  00000-0 0  9992
2 26690  53.1178 142.7166 0195662 260.9541 153.6080  2.00702162127275
UTC
Height (km)
Latitude
Longitude
Inclination
Orbital Period
UTC large
Height (km)
Speed (km/s)
/
Latitude / Longitude
Inclination (degrees)
Orbital Period (minutes)
Azimuth
Elevation
Range (km)
Doppler Factor
iOS Compass Heading
iOS Angle

Next 30 passes for location: Hong Kong

Rise time Rise Azimuth (degrees) Set time Set Azimuth (degrees) Duration Max altitude (degrees)

No matching passes for this satellites